ONEWEB-0318, 49104

Orbit data source: Space-Track

ONEWEB-0318, 49104 is a payload satellite owned by One Web (NAA) (UK) in LEO that was launched on Sat, 21 Aug 2021 UTC via a SOYUZ-2-1B launch vehicle from the Tyuratam Missile And Space Complex (TTMTR). Payload-class satellites include a variety of spacecraft equipped with specific instruments for various scientific and technological missions. These include communications satellites like Starlink; space stations such as the ISS; scientific satellites like the Hubble; Earth observation satellites from companies like Planet Labs, Umbra, and HawkEye 360; GPS; miniature CubeSats for education and research; and military/defense satellites.

Loading next visibility...
Identifier
49104, 2021-075AF
Orbit
LEO
Country
Flag of UKUK
Related business
Manufacturer
One Web
Mission
Operational Commercial Communications
Bus & Motor
ARROW, Unknown motor
Mass
148 kg wet, ~140 kg dry
Launch date (UTC)
2021-08-21 (5 years ago)
Launch vehicle
SOYUZ-2-1B
Launch site
Tyuratam Missile And Space Complex (TTMTR)
Object type
Payload
Rocket body
Debris
Shape & HBR
Trap Box + 2 Pan, 6.7 m
Radar Cross Section
3.464 m², Large (>1 m²)

Expand to show TLE details & history
Last TLE update: 8 hours ago

TLE from 8 hours ago
0 ONEWEB-0318
1 49104U 21075AF  26130.14129867  .00000039  00000-0  66919-4 0  9990
2 49104  87.9184 343.0275 0001972  92.4079 267.7279 13.18684676232154
Epoch: 2026-05-10T03:23Z
TLE epoch observation values (Epoch: 2026-05-10T03:23:28.205Z)
Latitude
0.00001°
Longitude
64.21134°
Altitude
1,192.708 km
Speed
7.257 km/s
True Right ascension
22h 52m 06s
True Declination
0° 00' 00"
Sunlit
Object was in daylight at epoch
Visualization orbit readout
Latitude
Unknown
Longitude
Unknown
Altitude
Unknown
Speed
Unknown
Apparent Right ascension
Unknown
Apparent Declination
Unknown
Sunlit
N/A
Visualization observer readout
Local Sidereal Time
19:48:55
Azimuth
Unknown
Elevation
Unknown
Doppler factor
Unknown
Orbital elements
Apogee altitude
1,188.347 km
Perigee altitude
1,185.364 km
Semi-major axis
7,564.992 km
Eccentricity
0.0002
Inclination
87.9184°
RAAN
343.0275°
Arg. of periapsis
92.4079°
True anomaly
267.70532°
Mean anomaly
267.7279°
Eccentric anomaly
267.71661°
Mean motion
3.29861 °/min
Orbital period
109.14 mins
BSTAR
0.000066919
Loading maneuver chart data...
Computing Atmospheric mass density...
Loading historical data...
Loading historical data...
Loading historical data...
Loading historical data...
Loading historical data...
Loading historical data...
Loading historical data...

Documentation

Showing up to 5 results
|